[Iaude] MPEC E134: 2024 EV2 [a=1.43,e=0.15,i=24.4,H=22.1]
    mpec at cfa.harvard.edu 
    mpec at cfa.harvard.edu
       
    Sat Mar  9 08:33:35 EST 2024
    
    
  
M.P.E.C. 2024-E134                                Issued 2024 March 9, 13:31 UT
     The Minor Planet Electronic Circulars contain information on unusual
         minor planets, routine data on comets and natural satellites,
         and occasional editorial announcements.  They are published
    on behalf of Division F of the International Astronomical Union by the
          Minor Planet Center, Smithsonian Astrophysical Observatory,
                          Cambridge, MA 02138, U.S.A.
			  
             Prepared using the Tamkin Foundation Computer Network
                              MPC at CFA.HARVARD.EDU
            URL https://www.minorplanetcenter.net/    ISSN 1523-6714
                                    2024 EV2                                    
Observations:
     K24E02V*1C2024 03 07.40404112 18 01.922+12 17 09.31         20.97GVEE134G96
     K24E02V 1C2024 03 07.40972412 18 00.738+12 16 55.31         21.18GVEE134G96
     K24E02V 1C2024 03 07.41545312 17 59.572+12 16 41.45         21.18GVEE134G96
     K24E02V KC2024 03 07.50102412 17 42.155+12 13 19.67         20.58GVEE134I52
     K24E02V KC2024 03 07.50285412 17 41.788+12 13 15.60         21.07GVEE134I52
     K24E02V KC2024 03 07.50469212 17 41.395+12 13 11.35         21.62GVEE134I52
     K24E02V KC2024 03 07.50652312 17 41.017+12 13 06.92         20.87GVEE134I52
     K24E02V 1C2024 03 07.99291 12 16 06.05 +11 53 47.5          20.7 VXEE134033
     K24E02V 1C2024 03 07.99500 12 16 05.61 +11 53 42.8          20.6 VXEE134033
     K24E02V 1C2024 03 07.99708 12 16 05.16 +11 53 37.5          20.6 VXEE134033
     K24E02V 1C2024 03 07.99916 12 16 04.75 +11 53 32.8          20.5 VXEE134033
     K24E02V |C2024 03 08.18645012 15 27.670+11 46 36.20         21.2 GVEE134807
     K24E02V |C2024 03 08.19195012 15 26.500+11 46 22.90         21.2 GVEE134807
     K24E02V |C2024 03 08.19746012 15 25.330+11 46 09.80         21.0 GVEE134807
     K24E02V 1C2024 03 08.88289 12 13 06.51 +11 17 43.2          20.7 VXEE134033
     K24E02V 1C2024 03 08.88428 12 13 06.20 +11 17 39.5          20.8 VXEE134033
     K24E02V 1C2024 03 08.88567 12 13 05.91 +11 17 36.4          20.9 VXEE134033
     K24E02V 1C2024 03 08.88706 12 13 05.62 +11 17 32.8          20.7 VXEE134033
     K24E02V KB2024 03 09.04246 12 12 33.30 +11 11 17.3          20.9 VqEE134Y66
     K24E02V KB2024 03 09.04335 12 12 33.09 +11 11 16.3          21.4 VqEE134Y66
     K24E02V KB2024 03 09.04416 12 12 32.99 +11 11 13.7          21.3 VqEE134Y66
     K24E02V KB2024 03 09.04497 12 12 32.79 +11 11 11.6          21.3 VqEE134Y66
     K24E02V 1C2024 03 09.10323 12 12 19.68 +11 08 38.1          21.6 VXEE134033
     K24E02V 1C2024 03 09.10462 12 12 19.38 +11 08 34.2          21.4 VXEE134033
     K24E02V 1C2024 03 09.10602 12 12 19.10 +11 08 30.6          21.5 VXEE134033
     K24E02V 1C2024 03 09.10741 12 12 18.81 +11 08 26.7          20.8 VXEE134033
     K24E02V KB2024 03 09.27420 12 11 45.276+11 01 35.62         20.3 RZEE134H36
     K24E02V KB2024 03 09.29006 12 11 41.806+11 00 55.69         20.5 RZEE134H36
     K24E02V KB2024 03 09.30646 12 11 38.246+11 00 15.77         20.4 RZEE134H36
Observer details:
033 Karl Schwarzschild Observatory, Tautenburg.  Observers S. Melnikov, C.
    Hogner, F. Ludwig, M. Hartmann, B. Stecklum.  Measurer B. Stecklum.
    1.34-m f/3 Schmidt + CCD.
807 Cerro Tololo Observatory, La Serena.  Observers T. Linder, R. Holmes.
    0.61-m f/6.8 Ritchey-Chretien + CCD.
G96 Mt. Lemmon Survey.  Observer J. B. Fazekas.  Measurers T. Beuden, V. F.
    Carvajal, D. Fay, J. B. Fazekas, D. C. Fuls, A. R. Gibbs, A. D. Grauer, H.
    Groeller, J. K. Hogan, R. A. Kowalski, S. M. Larson, G. J. Leonard, D.
    Rankin, R. L. Seaman, F. C. Shelly, K. W. Wierzchos.  1.5-m reflector +
    10K CCD.
H36 Sandlot Observatory, Scranton.  Observer G. Hug.  0.56-m f/4.8 reflector +
    CMO.
I52 Steward Observatory, Mt. Lemmon Station.  Observers V. F. Carvajal, G. J.
    Leonard.  Measurers T. Beuden, V. F. Carvajal, D. Fay, J. B. Fazekas, D.
    C. Fuls, A. R. Gibbs, A. D. Grauer, H. Groeller, J. K. Hogan, R. A.
    Kowalski, S. M. Larson, G. J. Leonard, D. Rankin, R. L. Seaman, F. C.
    Shelly, K. W. Wierzchos.  1.0-m prime focus + CCD.
Y66 Two-Meter Twin Telescope, TTT2, Teide.  Observer M. Serra.  Measurer M.
    Hierro.  0.80-m f/4.38 reflector + CMO.
Orbital elements:
2024 EV2                                                 Earth MOID = 0.2863 AU
Epoch 2024 Mar. 31.0 TT = JDT 2460400.5                 Veres                   
M 321.06777              (2000.0)            P               Q                  
n   0.57455103     Peri.  240.07372     -0.53363163     +0.84551490             
a   1.4330136      Node   357.43962     -0.55999784     -0.36964639             
e   0.1545422      Incl.   24.44908     -0.63375051     -0.38531299             
P   1.72           H   22.10          G   0.15           U   9                  
Residuals in seconds of arc
240307 G96  0.1+  0.4+    240307 033  0.1+  0.2+    240309 Y66  0.4+  0.1-
240307 G96  0.2-  0.3-    240308 807  0.1+  0.1+    240309 Y66  0.0   0.2-
240307 G96  0.1-  0.7-    240308 807  0.1-  0.0     240309 033  0.3-  0.6+
240307 I52  0.2+  0.2-    240308 807  0.3-  0.1+    240309 033  0.4-  0.1+
240307 I52  0.2+  0.1+    240308 033  0.1+  0.1+    240309 033  0.1-  0.0
240307 I52  0.1-  0.2+    240308 033  0.2-  0.1-    240309 033  0.1-  0.4-
240307 I52  0.2-  0.1+    240308 033  0.1-  0.1+    240309 H36  0.9+  0.4-
240307 033  0.2+  0.0     240308 033  0.1-  0.0     240309 H36  0.3+  0.7-
240307 033  0.1+  0.2+    240309 Y66  0.5-  0.7-    240309 H36  0.2+  0.4+
240307 033  0.2-  0.1-    240309 Y66  0.8-  0.5+
Ephemeris:
2024 EV2                 a,e,i = 1.43, 0.15, 24                  q = 1.2116
Date    TT    R. A. (2000) Decl.     Delta      r    Elong.  Phase     V
2024 02 08    13 05 25.9 +23 17 13   0.5437  1.3849   127.3    34.5    22.9
...
2024 02 23    12 51 20.0 +19 02 23   0.4240  1.3516   142.8    26.2    22.1
...
2024 03 02    12 34 01.0 +15 27 52   0.3715  1.3343   153.7    19.2    21.6
...
2024 03 08    12 16 04.6 +11 53 49   0.3398  1.3216   163.2    12.5    21.1
2024 03 09    12 12 41.8 +11 13 13   0.3353  1.3195   164.9    11.3    21.0
2024 03 10    12 09 12.8 +10 31 12   0.3311  1.3175   166.6    10.1    20.9
...
2024 03 16    11 46 31.2 +05 51 09   0.3112  1.3053   175.9     3.2    20.5
...
2024 03 24    11 13 43.9 -01 15 05   0.3005  1.2898   165.2    11.4    20.7
...
2024 04 08    10 19 13.4 -13 59 40   0.3266  1.2634   138.1    31.9    21.5
M. P. C. Staff               (C) Copyright 2024 MPC           M.P.E.C. 2024-E134
    
    
More information about the Iaude
mailing list